Zurück zum Katalog

FENGYUN 1C DEB

AktivSSO
NORAD 36198·DEBRIS·🇨🇳 China

Gestartet May 10, 1999 von Taiyuan Satellite Launch Center

Loading…

Nächste Überflüge (nächste 24 Stunden)

TLE

AlterndSource: Space-Track

Epoche: Sep 8, 2026, 06:53 UTC

1 36198U 99025DTX 26251.28717484  .00001804  00000-0  10168-2 0  9990
2 36198  98.6047 273.5624 0097869  71.4400 289.7372 14.09106839673822

Verfolge FENGYUN 1C DEB in Echtzeit mit AllMySat

Download on the App Store